Wind_Gust
25 25 25 25 25 25 25 24 24 24 24 24 23 23 24 24 24 24 24 23 23 23 24 25 25 25 25 25 25 23 23 29 27 25 18 11 9 5 6 8 11 13 13 17 19 19 20 21 21 19 20 20 23 27 25 29 29 29 40 40 41 37 40 34 41 39 30 37 32 36 34 36 35 29 35 27 34 33 26 29 31 30 19 37 29 36 36 33
25 26 26 26 25 25 25 25 25 25 25 24 24 24 24 24 24 24 25 24 24 25 25 25 25 25 25 23 23 20 26 24 25 24 18 8 6 7 9 9 11 12 12 16 17 19 19 17 17 17 22 23 17 26 21 35 28 36 35 39 41 38 39 27 35 37 36 34 31 28 29 35 37 30 27 32 23 28 33 32 30 31 26 34 30 32 37 38
26 26 26 26 26 26 26 26 26 25 25 24 24 24 24 25 25 25 24 24 25 26 26 26 26 25 24 23 19 20 24 26 21 15 13 6 7 8 9 11 11 12 14 17 19 20 19 19 21 21 19 20 20 25 24 34 31 34 35 40 41 30 30 33 33 36 38 37 39 36 33 30 30 37 27 28 26 26 30 35 34 36 23 32 33 36 35 42
26 26 27 27 27 27 26 27 26 26 25 25 25 25 24 24 24 24 25 25 26 27 27 26 25 24 24 22 18 26 23 23 17 16 12 8 9 10 11 11 13 15 17 19 22 23 18 19 19 18 21 20 21 24 28 27 33 27 39 42 38 30 35 35 38 38 36 42 42 39 32 36 33 35 34 27 27 27 27 33 32 33 33 32 30 31 35 36
27 27 27 27 27 26 27 27 26 26 26 25 25 25 24 24 24 24 26 26 28 28 27 26 24 23 22 21 19 22 20 18 14 12 12 9 11 9 11 10 12 18 17 20 21 19 18 18 17 19 21 24 21 22 27 27 31 29 33 33 36 35 37 30 30 32 33 32 38 36 37 41 33 34 33 35 35 28 32 31 33 33 33 32 30 30 27 31
27 28 28 28 28 28 27 27 27 27 26 25 25 25 25 25 25 26 26 27 28 28 26 24 23 22 21 18 26 20 17 13 14 14 9 10 9 9 10 11 14 18 19 19 20 18 19 16 18 20 22 21 20 26 22 27 26 36 32 32 32 33 36 31 34 33 32 41 37 36 38 34 33 36 35 35 36 30 27 28 31 30 34 34 35 33 28 23
27 28 28 28 28 28 28 27 27 27 26 26 26 26 25 26 26 26 26 29 29 27 24 23 22 21 20 20 27 17 18 15 11 13 11 10 11 9 13 13 16 20 20 22 20 21 15 19 18 19 20 22 22 28 25 25 25 33 36 24 32 33 33 27 31 34 38 35 36 40 34 40 32 40 32 37 34 33 29 24 32 31 32 32 34 30 32 35
28 28 28 28 28 29 28 28 28 27 27 26 26 26 26 26 26 27 27 29 27 25 23 21 20 19 16 22 18 17 20 8 15 16 13 12 15 16 16 17 16 17 18 17 16 15 15 17 17 18 22 23 19 24 20 25 27 31 35 29 32 28 31 34 35 34 31 40 37 31 29 26 27 36 30 38 36 33 29 28 32 30 35 39 35 31 32 30
28 28 28 29 29 29 29 29 28 28 27 27 26 26 27 26 27 26 28 28 25 23 22 20 18 16 12 16 16 20 13 14 11 18 19 14 15 13 15 20 19 18 16 16 13 15 14 14 18 14 19 19 18 23 22 22 23 23 26 25 22 23 24 26 26 28 28 39 32 35 34 30 31 30 40 37 38 37 38 30 34 27 34 39 40 42 37 34
28 29 29 29 29 29 29 30 29 28 28 27 27 28 27 27 26 26 28 26 23 22 20 18 16 11 16 16 15 18 12 11 8 17 16 12 12 12 14 15 13 14 18 16 12 16 16 17 18 18 16 20 21 24 19 21 25 23 24 23 23 22 22 21 27 28 30 35 32 36 31 32 25 29 32 27 33 38 38 35 30 26 22 30 32 38 40 46
29 29 29 30 29 30 30 30 30 29 29 28 29 28 28 27 26 27 25 23 21 19 18 15 11 12 15 16 18 14 10 14 10 10 13 12 10 12 14 13 10 14 15 16 16 13 14 15 16 17 19 20 21 20 20 21 19 24 27 26 26 24 24 27 29 29 27 29 21 24 26 23 26 31 37 32 28 34 35 34 27 29 22 23 26 31 28 31
29 29 30 30 30 31 31 31 31 30 30 30 29 28 27 26 26 24 23 20 18 17 15 12 9 15 17 18 20 14 9 7 7 10 12 11 16 15 14 12 12 15 15 17 16 18 15 13 14 16 23 21 23 17 21 18 22 21 21 28 25 25 34 27 33 30 30 35 24 21 26 29 27 32 30 30 32 30 30 25 23 19 12 23 24 19 31 32
29 30 30 31 31 31 32 32 31 32 31 31 30 29 27 26 25 24 21 18 13 13 12 10 9 15 15 17 13 14 11 10 8 11 10 13 14 11 11 11 12 12 14 15 16 15 16 14 13 18 18 21 20 24 22 27 22 21 22 25 26 27 31 27 28 30 33 36 24 24 41 29 32 33 35 35 37 36 30 27 28 21 16 9 23 21 23 24
30 31 31 32 32 32 33 33 32 32 33 31 30 29 27 26 24 22 20 16 17 15 13 9 15 16 13 16 15 9 10 9 9 13 15 11 14 18 17 14 14 13 13 14 13 14 16 15 15 20 20 21 24 17 23 23 19 26 23 24 28 26 29 22 30 27 34 30 29 30 41 35 32 34 36 36 36 29 29 29 27 22 21 24 21 25 23 22
31 31 32 32 33 33 34 34 33 33 33 32 31 29 27 26 25 21 19 16 13 14 13 8 16 14 14 17 12 13 7 12 15 13 14 12 14 16 17 13 15 16 13 14 16 15 14 13 16 19 23 18 21 22 24 23 22 24 26 27 26 28 27 27 27 27 35 30 31 32 41 38 31 33 33 33 30 26 30 32 30 29 25 26 20 23 27 26
31 31 32 33 33 34 34 34 32 32 31 34 30 30 29 27 23 20 16 16 16 14 16 15 17 18 19 21 14 12 12 15 11 17 13 7 13 16 16 17 13 15 14 16 17 16 14 15 19 19 21 19 21 21 21 24 23 27 28 23 26 23 24 26 24 27 29 31 27 37 39 31 31 33 33 24 23 29 39 37 32 30 24 27 24 18 26 25
31 32 32 33 33 33 35 33 32 32 32 31 33 32 28 22 17 13 13 12 15 15 14 16 15 18 17 21 12 15 12 15 11 12 14 15 12 14 15 14 17 18 17 18 17 14 16 18 15 21 20 22 19 20 22 23 24 26 24 30 26 28 26 31 23 27 24 29 31 32 43 33 26 24 24 24 26 26 33 38 38 40 37 32 26 23 21 20
31 32 32 32 33 33 34 33 33 32 31 33 31 27 32 22 9 11 16 14 18 18 18 21 18 17 26 27 15 14 17 14 15 18 15 12 10 13 13 18 15 16 17 20 19 22 17 21 17 21 17 21 21 20 22 24 23 22 20 22 26 25 27 31 32 18 25 25 30 31 34 31 29 31 31 30 22 35 35 33 36 39 37 36 36 30 25 24
31 32 33 32 32 34 33 33 33 33 30 33 29 26 16 10 13 17 18 13 13 12 13 17 15 15 20 12 12 11 15 19 18 15 14 9 11 13 14 15 16 17 18 19 19 20 21 18 17 20 22 20 23 22 21 23 25 28 26 26 26 26 26 30 28 28 29 29 30 29 35 33 31 29 27 27 34 29 35 35 29 31 32 34 35 33 29 26
32 32 33 33 33 33 33 32 32 32 28 27 31 28 16 21 18 11 15 17 21 20 20 16 21 15 16 17 17 16 16 16 16 11 13 12 12 14 17 17 18 20 19 18 15 23 13 19 20 21 21 21 20 23 25 26 23 23 23 23 26 28 28 27 31 29 31 35 31 32 31 32 28 28 30 30 29 33 29 34 35 24 30 31 32 33 30 27
32 33 34 33 32 34 32 31 31 31 27 27 26 24 21 24 22 21 28 24 23 24 24 22 19 16 18 14 14 17 20 17 13 9 12 11 17 13 16 15 17 19 21 19 22 12 19 19 22 22 23 24 24 25 25 25 20 23 24 25 28 26 29 25 29 29 29 34 28 29 30 29 29 28 30 34 33 35 33 30 30 36 32 29 30 33 35 26
33 33 34 33 34 33 33 29 31 28 29 23 18 24 16 18 15 14 17 22 22 25 17 17 18 17 16 19 15 10 18 25 23 24 15 12 12 17 10 13 14 20 17 18 22 20 19 23 23 22 23 23 23 22 21 19 20 20 24 23 26 27 25 26 28 26 28 28 31 29 34 32 27 31 32 33 32 27 29 30 30 30 35 29 31 33 32 28
32 34 33 34 34 33 31 31 27 28 23 20 17 17 20 16 15 14 14 24 28 25 21 15 16 15 14 11 12 10 17 18 22 14 14 11 15 17 17 19 17 19 21 19 22 20 25 24 26 23 19 19 20 18 18 19 21 22 23 25 27 22 23 27 24 25 24 30 28 28 33 32 30 32 33 29 33 32 30 30 32 33 32 34 28 29 30 30
32 33 34 33 35 33 32 29 30 19 16 18 14 17 14 14 16 16 17 17 19 18 19 18 13 13 12 11 17 18 14 15 18 10 12 9 16 18 20 17 19 19 21 19 21 26 27 24 26 26 24 23 25 22 21 23 25 22 24 26 27 22 23 26 27 30 30 29 26 28 35 36 29 30 32 28 31 33 27 28 30 35 35 28 32 27 25 29
33 34 33 34 34 35 33 31 15 11 15 13 14 16 16 15 14 14 17 16 17 21 15 9 10 9 14 13 11 17 11 16 14 15 15 14 18 16 18 23 20 20 18 18 21 25 26 23 22 24 23 24 25 24 22 23 26 26 23 23 23 23 23 22 25 28 30 29 24 23 32 34 29 33 34 29 32 28 34 34 36 33 31 34 27 35 26 21
33 34 33 33 33 33 33 16 11 21 22 17 16 18 15 18 13 13 15 13 10 15 17 13 13 12 17 15 13 14 17 20 11 17 15 12 12 19 22 23 18 21 18 19 25 27 24 24 24 24 24 24 23 25 23 23 25 25 25 18 22 26 27 26 26 25 28 31 24 22 32 36 22 29 31 35 33 29 33 36 36 36 32 27 25 21 29 27
34 34 33 33 29 27 21 12 20 24 13 15 16 14 15 15 15 10 15 12 11 10 12 21 15 20 16 10 17 14 25 12 14 22 19 19 12 12 17 20 20 18 21 27 28 25 18 22 18 17 21 24 24 24 22 23 28 33 20 23 23 24 26 26 26 27 31 25 29 30 32 31 33 29 29 29 32 36 36 37 36 34 31 27 24 20 18 20
34 34 34 31 27 16 16 23 21 18 15 14 15 13 15 15 14 11 14 12 19 14 11 15 14 14 15 16 17 24 21 16 20 12 12 18 13 17 20 19 21 22 25 21 26 20 23 26 21 24 23 28 26 23 21 20 29 28 21 23 22 23 22 22 23 26 25 24 33 28 28 39 35 31 27 29 32 34 36 37 33 37 35 30 28 25 20 19
33 34 32 28 29 26 17 16 16 17 15 14 12 15 15 10 11 15 13 16 16 19 15 13 14 13 19 19 22 23 19 14 16 10 16 17 19 16 19 17 20 23 22 22 27 27 26 22 24 26 28 27 23 26 24 27 28 20 24 25 26 25 27 27 27 25 24 27 37 32 29 37 32 30 29 30 34 32 35 37 36 31 35 36 32 25 25 21
35 31 28 25 24 15 15 13 18 18 15 13 14 16 15 14 16 12 11 7 16 17 24 24 18 28 25 24 24 20 21 18 18 13 14 19 15 14 24 18 26 21 23 20 24 26 29 23 26 31 28 26 24 23 23 24 25 26 28 30 29 27 26 24 26 29 26 30 42 31 30 31 36 34 29 32 34 31 29 33 35 35 30 32 32 31 22 21
31 28 25 20 17 18 19 16 15 19 15 15 16 17 16 15 12 17 18 13 23 20 23 23 27 24 27 22 27 18 20 17 18 17 18 9 17 15 18 24 16 22 21 21 25 22 22 24 25 22 24 29 24 30 22 23 22 22 27 26 25 27 25 26 27 23 30 39 33 26 31 30 38 35 34 31 26 33 34 29 32 37 38 33 29 33 31 24
32 31 26 21 20 21 16 17 20 17 16 16 16 19 14 20 22 18 16 16 25 22 20 26 22 28 23 18 19 25 18 18 13 19 19 20 18 17 14 16 19 21 17 18 23 23 25 21 24 23 19 24 26 25 23 22 20 21 23 24 27 30 22 31 25 30 34 42 24 17 21 29 35 36 32 32 31 29 30 32 30 28 36 35 31 31 33 30
35 31 30 23 16 15 20 20 17 15 14 17 19 15 15 12 14 19 19 22 10 21 27 22 27 26 25 26 21 17 19 16 19 17 17 15 18 16 15 19 18 19 22 22 25 24 18 19 23 16 17 23 25 23 22 22 18 20 22 21 24 28 25 26 26 26 30 32 28 28 21 34 27 29 29 34 35 35 30 29 32 33 24 28 34 31 31 30
35 30 20 13 16 20 17 13 15 15 17 16 17 19 15 18 17 14 19 22 17 21 21 28 27 27 26 16 19 21 22 18 18 25 22 18 16 18 17 16 18 17 14 21 21 20 24 24 13 22 20 23 28 27 26 25 22 22 16 18 21 26 30 20 26 29 28 27 24 24 29 34 25 25 21 29 32 33 34 33 27 28 31 23 22 33 28 25
37 27 16 17 20 22 19 19 14 10 15 16 17 17 12 16 17 21 18 19 23 20 21 25 30 23 18 14 19 19 17 20 18 19 17 16 16 18 14 15 19 16 17 19 13 16 19 29 21 20 26 32 31 25 26 24 26 28 20 19 26 29 14 25 26 26 26 24 29 27 31 18 25 20 28 29 28 28 26 32 34 29 23 24 20 20 30 29
23 15 14 19 18 17 17 16 10 8 13 19 18 18 16 15 15 19 21 19 20 23 22 24 21 19 21 21 19 21 17 23 20 20 18 15 18 14 15 17 20 21 15 16 18 16 19 31 17 33 34 28 27 28 28 20 23 12 18 25 23 15 20 14 21 26 23 25 43 30 28 32 25 28 27 28 27 31 30 28 34 35 29 22 18 18 19 24
18 20 15 15 14 10 9 9 9 8 12 17 17 16 16 16 18 18 17 21 21 17 18 19 22 23 19 22 21 18 23 21 17 23 21 21 14 13 18 25 20 18 16 14 13 11 15 37 24 30 28 21 19 28 26 28 29 24 27 20 18 21 21 16 23 20 21 26 34 18 25 23 24 33 19 23 28 30 30 33 29 32 31 27 20 14 18 16
21 19 18 17 11 11 10 9 9 12 12 16 13 7 15 19 22 19 13 19 22 16 19 14 22 18 20 23 20 23 20 22 21 20 19 15 19 14 16 15 22 23 14 14 16 12 12 36 17 16 22 22 28 24 21 23 29 25 23 16 18 17 13 16 18 24 22 26 29 24 23 29 28 30 21 20 20 18 24 29 29 29 34 29 24 19 18 20
19 18 14 13 11 11 11 9 11 13 15 18 14 15 19 18 19 19 16 18 15 17 13 15 19 17 22 18 22 21 22 24 21 19 21 15 19 19 18 17 17 19 13 9 15 9 7 17 33 9 18 29 30 21 23 22 15 14 16 15 11 17 22 26 21 19 21 25 18 29 21 30 24 26 21 21 19 22 21 24 26 28 25 24 23 20 21 19
15 18 9 8 9 9 9 9 12 14 17 13 18 18 23 17 23 17 17 17 17 12 10 14 15 20 19 16 20 22 19 19 20 20 18 17 22 18 21 18 19 18 12 8 8 7 10 10 24 27 22 27 27 18 20 20 21 18 13 18 13 19 16 18 21 27 23 28 28 29 28 28 24 20 20 23 27 22 19 21 22 24 23 19 15 18 20 23
15 16 12 8 9 9 10 13 16 17 15 19 13 19 15 16 18 15 15 14 15 13 14 15 18 18 19 23 19 20 23 20 21 22 22 19 15 20 19 19 14 17 14 13 12 6 12 10 18 32 33 23 26 21 24 26 18 9 12 20 12 11 13 14 24 21 29 28 31 21 35 29 20 24 20 23 20 17 16 19 22 22 23 22 22 18 25 25
13 15 11 7 6 7 13 14 17 16 18 16 18 21 15 10 12 15 16 15 15 23 9 13 14 17 19 19 20 20 22 22 21 21 14 19 18 18 8 11 11 19 14 21 17 8 12 12 21 27 27 31 30 32 18 19 16 11 13 17 12 18 20 20 22 21 20 25 20 26 27 33 22 19 16 17 18 19 19 18 21 19 20 23 25 26 23 26
14 15 14 11 7 9 14 13 14 16 16 19 18 11 15 19 14 17 19 19 22 16 17 14 16 20 15 20 19 21 21 27 21 18 20 20 21 16 10 11 10 16 7 11 8 12 6 17 21 27 26 30 30 20 21 19 11 8 13 15 16 21 18 23 26 23 25 22 22 19 26 33 15 13 13 18 16 18 18 18 21 19 16 22 23 29 31 28
17 20 16 12 9 12 20 15 20 16 23 18 16 16 12 17 13 17 21 18 22 17 18 19 13 12 19 18 25 25 20 23 11 21 22 17 25 20 11 14 13 22 10 9 10 7 18 8 12 26 33 24 9 9 12 9 11 11 17 16 16 19 21 26 27 23 26 26 24 23 36 22 10 13 15 18 18 17 19 21 17 18 18 18 22 26 35 40
23 18 15 16 15 14 18 17 14 15 18 18 21 14 19 15 13 10 17 19 16 15 17 17 18 19 23 18 22 20 17 18 30 16 20 19 25 21 12 12 17 16 10 8 10 11 9 13 13 19 25 30 37 36 35 30 24 26 20 20 21 22 23 20 18 20 25 22 20 27 36 26 25 23 20 17 18 21 24 24 24 18 15 19 21 23 30 47
15 15 18 19 21 13 13 12 17 18 17 18 14 15 16 20 14 16 14 19 15 17 19 21 17 15 16 18 21 20 21 17 19 24 24 23 23 23 19 19 15 13 14 13 13 10 11 15 17 20 20 23 26 27 25 20 22 24 27 25 27 24 23 22 20 25 31 24 23 25 27 27 27 21 14 22 21 23 25 26 27 26 24 22 19 24 28 29
19 15 18 19 23 10 20 15 18 16 13 15 17 20 19 20 21 19 15 23 19 24 24 17 19 21 18 17 20 22 19 21 20 22 18 20 20 29 19 17 15 14 16 12 12 10 7 15 18 21 25 29 28 29 34 26 26 28 29 29 27 25 24 19 26 31 23 23 29 24 22 25 23 19 25 23 22 22 23 24 25 27 27 24 21 28 29 32
16 13 16 15 14 17 18 13 19 16 15 14 16 18 18 20 20 21 19 14 21 19 20 15 18 16 18 20 23 23 20 21 22 19 20 22 25 22 29 17 12 11 12 11 12 7 8 13 18 13 23 23 24 30 29 30 28 28 28 27 27 26 23 22 24 29 26 27 32 23 23 25 22 21 21 23 26 27 26 26 24 23 23 22 21 27 31 30
16 17 11 19 12 13 15 16 17 15 18 12 17 14 20 20 20 19 19 23 21 17 17 15 13 17 21 21 19 22 19 22 19 22 24 25 23 27 26 17 10 10 11 11 12 10 11 17 20 18 27 27 23 26 25 25 24 24 26 26 25 25 23 21 24 23 25 27 28 29 27 27 25 26 28 30 27 25 25 21 22 20 22 21 18 21 23 25
21 19 15 19 15 19 15 13 17 16 18 12 10 15 25 22 20 22 20 20 21 19 15 17 19 21 22 19 19 22 19 19 21 26 22 23 31 21 21 18 19 10 9 16 16 10 7 23 11 19 22 28 20 16 15 16 18 21 23 24 27 25 21 20 22 22 23 25 25 24 26 28 26 23 27 26 24 22 22 23 21 19 19 20 19 21 27 25
14 10 8 16 21 16 20 15 17 18 17 9 11 18 21 20 20 20 23 20 20 19 16 19 20 23 20 20 19 21 20 21 23 24 25 25 29 24 20 15 10 16 19 24 13 10 9 16 14 16 19 31 17 18 22 17 16 16 22 30 33 29 25 23 28 24 23 28 24 22 24 30 28 29 28 24 26 25 24 23 23 22 22 22 21 22 24 27
14 7 7 10 15 10 18 17 17 16 14 15 18 19 23 22 19 20 26 16 11 13 19 19 20 23 21 20 22 22 21 25 27 29 29 28 28 29 23 25 23 20 18 26 18 18 12 18 23 21 24 26 26 22 21 18 14 15 33 30 30 23 20 27 27 22 24 21 23 23 24 26 31 30 32 31 31 29 27 23 23 27 25 23 25 27 25 25
Wind_Speed
19 19 19 19 19 19 19 19 19 19 19 18 18 18 18 18 18 18 18 18 18 19 19 20 20 20 19 19 19 16 16 8 11 5 4 5 3 3 3 4 5 5 6 2 4 6 6 7 7 6 6 1 2 0 3 1 2 1 2 2 8 5 4 0 5 3 2 6 5 4 6 6 10 6 5 6 10 13 12 11 4 5 6 21 11 11 17 19
19 19 19 19 19 19 20 20 20 19 19 18 18 18 19 19 19 18 18 19 19 20 20 20 20 19 19 18 17 15 13 6 6 7 11 3 4 5 5 5 5 5 4 1 4 3 4 7 6 7 6 1 1 2 1 2 3 4 1 2 10 1 2 2 4 6 5 7 8 11 7 6 8 4 3 6 10 9 8 9 6 10 5 5 3 14 24 23
20 20 20 20 20 20 20 20 20 19 19 19 19 19 19 19 19 19 19 19 20 21 21 20 19 18 17 16 14 12 10 6 2 1 3 4 6 5 5 6 5 4 0 0 0 1 2 4 7 6 4 2 2 4 1 3 1 3 4 8 5 1 4 7 5 7 6 5 8 11 17 11 6 5 3 6 7 8 6 2 9 3 2 6 10 8 4 12
20 21 21 21 20 20 20 20 20 20 20 19 19 18 18 18 18 19 19 20 21 21 20 19 18 17 16 15 12 8 4 3 2 2 2 6 6 6 5 7 6 4 1 1 2 2 3 6 6 2 3 1 3 0 1 4 1 2 4 5 1 0 6 6 9 9 9 11 10 9 8 17 13 6 4 5 9 11 8 3 12 10 2 6 14 13 9 2
21 21 21 21 21 20 20 20 20 20 20 19 19 19 19 19 19 19 19 21 21 20 19 18 17 16 15 13 12 3 2 2 1 1 3 5 5 6 7 8 6 2 0 2 4 2 3 5 5 2 1 4 1 1 3 4 4 1 4 4 4 3 7 8 9 12 13 12 10 12 13 10 14 12 3 4 5 8 3 0 9 9 21 13 6 18 13 7
22 21 21 21 21 21 21 21 20 20 20 19 20 19 19 19 19 20 20 20 20 19 18 16 15 14 13 13 8 1 1 2 1 2 4 7 5 7 8 7 4 1 1 3 1 6 5 6 1 1 1 0 2 2 5 2 2 5 4 4 5 6 7 5 6 7 7 10 11 8 8 5 4 17 8 5 4 4 4 6 9 15 17 23 19 13 14 13
22 22 22 21 22 22 22 21 21 21 20 20 20 20 19 19 18 19 19 19 18 17 17 15 13 13 13 12 2 1 3 2 3 5 7 8 7 7 9 6 2 1 1 4 3 2 3 5 1 2 3 3 4 2 5 4 4 2 4 3 6 8 10 12 11 10 7 10 16 8 7 3 3 10 6 5 5 7 6 2 4 3 5 15 15 11 7 8
22 22 22 22 23 23 22 22 22 21 21 20 20 20 20 19 19 19 19 18 17 16 15 13 12 11 11 5 1 2 2 1 6 2 9 7 8 7 5 4 3 1 2 4 3 4 4 6 2 3 2 2 3 3 5 5 3 2 2 2 4 2 4 6 7 6 6 8 8 2 4 3 2 3 12 6 7 6 7 3 4 8 5 9 20 21 20 14
21 22 23 23 23 23 23 23 22 22 21 21 21 21 21 20 19 18 18 17 15 14 13 12 10 9 5 0 2 2 1 3 3 6 7 6 8 6 2 2 2 2 2 3 3 5 3 2 4 1 3 3 1 5 4 4 5 2 5 5 5 6 5 4 4 5 5 4 4 4 4 4 4 5 6 8 2 4 5 7 5 13 9 11 15 23 21 15
22 23 23 23 23 23 23 23 23 22 22 21 22 21 21 20 19 18 17 16 14 13 11 9 9 8 3 0 1 4 3 4 2 5 7 7 6 4 3 8 1 1 2 5 3 2 3 3 4 7 1 2 3 3 4 2 3 6 7 8 6 8 6 2 3 5 4 3 3 3 7 6 4 2 6 9 2 4 7 7 6 6 12 7 10 10 12 11
23 23 23 24 23 24 24 23 23 23 22 22 22 23 22 21 20 19 16 14 13 12 8 7 7 6 2 2 3 1 3 3 3 5 8 7 5 3 5 4 5 2 2 4 5 5 2 4 4 4 1 0 5 6 4 3 5 8 8 10 6 5 6 6 5 7 2 3 2 3 5 7 5 3 6 6 9 3 4 6 4 2 8 9 3 2 1 1
23 23 23 23 24 24 24 24 24 23 23 23 23 22 22 21 19 17 15 13 12 8 7 6 5 1 0 1 2 2 2 3 1 4 7 7 5 6 6 6 3 3 2 2 5 5 3 3 4 4 1 3 4 5 4 4 8 7 6 8 9 10 9 4 4 5 1 3 3 1 7 8 8 6 2 5 7 6 2 3 5 1 4 6 6 6 7 11
23 24 24 24 25 25 24 25 25 24 24 24 23 23 21 20 19 17 14 12 7 7 7 4 2 0 0 3 5 8 4 4 1 3 4 3 3 3 4 5 7 4 3 3 4 6 5 2 3 4 1 2 3 0 5 7 5 6 4 2 9 8 10 13 3 3 2 3 5 3 7 6 8 14 5 3 5 10 7 1 4 4 3 3 2 10 6 1
24 24 24 25 24 25 25 25 25 25 25 24 24 23 21 20 19 16 13 9 9 7 3 2 0 1 1 3 4 4 3 1 3 3 4 1 1 5 3 3 5 4 4 3 5 5 4 4 3 1 1 1 3 3 8 5 3 4 5 2 3 5 6 9 1 6 10 3 4 2 4 6 9 11 13 5 5 5 13 6 9 4 3 5 11 8 6 8
24 25 24 25 26 25 25 25 25 25 26 25 24 23 21 20 18 14 11 7 6 5 2 1 0 1 2 5 5 7 3 2 1 6 4 1 3 4 4 1 2 3 3 3 2 1 2 2 3 1 2 2 1 3 5 3 3 2 4 5 4 2 8 11 6 2 7 6 3 3 4 8 9 13 12 7 6 7 10 16 7 11 7 7 7 10 10 8
24 25 25 26 25 25 24 24 25 24 24 25 23 24 23 18 15 12 8 7 5 3 1 1 0 0 1 5 1 6 2 0 3 7 3 4 3 4 3 4 1 2 1 3 5 4 3 0 1 3 2 3 1 2 4 6 5 1 2 4 6 2 6 10 4 3 8 7 7 3 6 5 7 6 6 9 3 6 8 10 14 5 10 9 9 10 10 8
24 25 25 25 25 24 25 24 24 25 25 25 25 24 21 11 9 6 6 3 2 2 2 1 1 0 1 1 4 3 3 4 3 1 2 2 3 1 2 2 1 4 4 6 5 3 1 1 1 1 1 2 0 3 4 4 4 5 1 5 5 5 4 4 9 4 1 3 4 1 1 5 9 9 11 10 9 6 5 9 12 14 7 8 7 9 11 11
25 25 25 25 25 25 24 24 23 24 24 26 25 18 16 15 3 1 3 4 1 2 1 1 0 1 4 2 2 2 2 2 1 3 5 3 3 1 1 0 1 2 3 4 3 1 1 1 1 3 2 1 0 2 2 5 5 3 2 3 6 3 5 8 5 4 9 1 2 4 5 6 8 8 9 8 7 5 7 9 11 16 5 7 4 6 11 10
25 24 25 25 25 25 25 23 23 22 21 25 24 14 3 1 1 2 3 1 1 2 1 1 1 1 2 6 7 5 4 4 1 1 3 1 0 1 1 0 1 2 2 3 5 1 1 0 4 2 4 3 4 7 8 11 4 6 6 4 4 5 5 5 6 4 4 7 7 2 4 3 6 10 9 9 6 6 7 7 9 10 9 5 7 7 8 12
24 25 26 26 26 26 26 25 23 21 19 16 12 8 5 8 7 2 4 2 1 2 3 3 3 5 9 10 6 3 2 3 3 3 3 1 3 1 2 2 1 1 0 2 4 3 3 2 4 6 8 9 9 8 11 12 9 9 8 8 7 5 4 4 5 4 1 5 6 6 4 3 6 7 8 10 6 5 7 8 6 8 8 2 4 7 10 12
25 26 26 26 25 27 25 24 22 18 18 7 7 4 6 3 4 4 8 7 4 3 5 9 6 6 7 5 7 3 4 2 0 1 2 1 3 3 3 2 2 2 2 4 4 2 3 1 6 10 12 10 11 8 6 7 7 9 8 6 6 3 6 3 5 5 4 3 6 8 5 5 7 7 8 7 6 6 6 6 6 8 8 4 4 7 8 12
25 25 25 26 27 26 26 22 23 19 14 2 2 4 1 0 1 3 0 6 8 2 5 10 6 6 6 11 10 3 3 1 6 2 2 1 1 2 2 2 2 3 4 2 5 4 1 6 11 12 13 9 7 9 8 7 9 8 6 6 6 8 5 5 5 4 5 4 9 7 7 10 8 7 8 6 7 7 7 6 8 9 10 6 4 6 5 3
24 26 25 26 26 25 24 22 22 19 3 3 3 1 1 3 1 1 1 1 6 5 5 4 3 5 5 3 2 3 2 1 2 2 3 1 1 1 1 3 4 5 4 3 4 3 6 5 11 12 9 4 7 10 9 10 7 4 5 5 8 5 3 9 4 5 7 4 4 5 11 12 12 5 7 9 7 6 7 6 8 6 7 8 6 7 6 6
23 24 26 25 25 24 23 22 20 4 3 2 0 2 2 1 3 4 1 2 4 8 5 5 2 3 3 2 1 1 1 3 1 3 2 2 1 1 2 0 4 3 4 5 5 3 5 11 5 3 4 4 7 6 4 3 5 3 4 5 5 4 6 7 6 4 6 8 4 6 8 9 8 11 9 6 6 4 6 5 5 7 6 7 5 1 5 6
26 27 27 26 25 27 25 18 3 3 7 0 0 1 0 2 3 3 2 2 1 6 4 3 3 3 2 3 1 1 1 2 3 2 3 3 1 2 1 1 1 2 3 6 3 4 7 4 6 10 8 7 5 6 7 4 7 5 4 7 8 8 9 8 8 7 3 4 2 3 5 10 6 8 11 10 4 6 5 5 7 8 9 4 5 7 5 5
23 24 25 24 25 26 23 3 3 6 5 2 1 2 2 2 2 2 2 1 1 3 2 1 0 1 2 1 1 2 3 2 6 3 3 4 3 2 1 1 1 3 4 4 3 3 4 4 5 6 8 7 5 3 4 5 5 6 7 5 7 7 7 7 9 5 6 7 5 3 5 9 6 9 9 7 6 10 8 7 9 8 9 10 7 7 5 4
23 23 24 24 21 21 6 1 3 6 1 2 3 3 3 3 2 5 1 2 3 1 1 1 2 0 2 4 5 1 2 3 4 1 1 1 1 0 1 3 2 1 2 0 3 5 4 11 10 9 5 4 5 6 4 3 4 6 4 9 9 9 8 8 7 5 6 4 2 4 5 5 9 14 6 9 10 11 9 10 10 11 8 9 8 8 6 5
25 25 24 23 21 12 4 2 5 2 3 3 2 4 3 1 2 3 1 2 4 2 3 3 0 2 3 8 6 1 4 6 1 2 3 3 6 2 1 2 2 4 3 3 5 4 4 7 7 9 9 8 8 5 6 2 2 6 6 8 12 11 12 13 8 6 4 4 8 5 3 2 6 14 3 4 6 11 13 9 9 12 11 8 9 7 6 6
26 26 22 20 20 10 4 3 0 3 3 3 4 3 3 3 5 2 2 2 1 0 4 1 4 2 8 9 6 3 3 1 3 2 0 2 1 3 0 4 2 1 1 1 4 5 1 1 8 8 6 8 4 4 4 6 7 3 5 11 11 9 6 6 4 4 4 2 10 5 8 6 10 15 12 1 3 9 8 9 9 11 14 11 10 9 8 5
26 21 20 16 11 2 1 0 4 7 5 6 6 3 2 5 2 1 3 1 1 2 6 2 3 7 6 8 6 9 8 4 2 0 1 2 2 3 2 1 1 1 2 3 2 4 5 9 9 4 3 1 1 3 4 5 7 7 6 8 8 5 4 4 3 0 3 7 5 7 7 7 9 16 8 4 8 8 7 8 7 7 10 9 6 7 8 7
23 22 16 11 1 1 1 4 8 6 6 5 3 3 3 2 1 3 1 1 2 2 4 4 7 10 9 7 7 5 4 3 4 4 3 3 1 4 5 4 6 4 4 5 3 5 8 5 2 0 1 1 1 7 6 5 9 9 3 3 4 6 2 1 2 0 3 9 1 6 5 10 7 10 1 5 5 5 7 9 10 10 12 11 8 8 6 5
24 25 19 8 5 0 2 3 3 2 6 6 3 3 3 1 6 5 2 5 2 7 3 7 6 3 9 5 4 5 5 4 6 3 4 1 4 6 6 5 3 5 6 8 8 6 7 6 3 4 2 7 3 8 9 9 6 6 5 4 0 3 2 3 1 2 7 9 2 4 10 3 14 12 4 5 5 6 8 10 10 11 14 14 9 8 8 5
25 23 22 5 7 2 5 8 6 6 5 4 3 2 1 5 2 3 1 5 0 1 4 1 4 6 6 5 8 9 4 6 8 4 4 2 7 5 5 6 2 5 2 4 4 8 5 8 2 3 5 2 7 6 7 7 4 8 6 3 1 1 1 4 2 2 4 4 0 7 8 6 8 9 2 4 5 6 8 10 9 7 10 11 11 10 8 6
23 21 8 3 6 7 5 4 5 3 6 3 3 4 7 7 1 3 1 1 1 2 3 2 5 5 5 3 4 4 6 3 7 7 4 3 3 2 6 7 6 4 3 2 3 4 10 5 6 8 3 5 9 3 3 6 8 8 3 4 5 3 2 3 4 5 5 4 3 3 3 6 1 5 5 9 11 12 11 10 10 9 10 11 9 9 9 8
24 14 6 3 3 6 11 9 7 3 2 5 6 6 5 0 0 2 1 2 2 2 3 3 3 4 5 5 4 5 2 3 5 7 5 6 4 3 1 1 4 3 1 5 1 0 4 8 8 1 5 8 8 3 3 6 8 7 2 4 2 6 3 7 1 0 2 3 4 4 5 2 5 6 12 11 12 16 16 10 7 11 12 13 10 9 8 8
13 6 1 3 1 4 5 5 3 2 1 6 7 6 4 1 1 0 0 2 1 1 4 5 3 5 3 4 3 7 6 3 5 4 4 5 2 3 1 0 1 2 2 2 2 2 3 6 2 9 6 6 6 5 10 1 1 3 4 1 1 3 2 2 1 1 1 1 9 2 6 6 7 12 11 13 11 11 8 6 6 7 8 10 10 7 6 7
7 8 4 4 2 3 3 4 4 3 3 4 6 3 1 1 2 1 1 1 1 1 3 5 4 3 4 4 3 7 8 5 3 3 4 2 3 1 0 1 3 2 2 3 2 1 0 13 13 5 9 2 2 10 11 4 6 3 3 2 4 6 4 3 3 1 2 5 4 4 7 4 0 9 4 8 7 7 8 8 8 7 7 8 5 4 4 5
6 3 3 5 3 2 3 3 3 3 2 4 4 4 1 1 1 1 1 2 2 2 3 2 2 5 2 2 6 6 9 4 8 3 3 2 1 1 3 1 1 3 3 0 1 1 1 8 4 3 5 7 13 9 8 3 7 1 3 3 2 3 2 1 0 3 3 3 4 4 6 6 5 8 5 9 9 10 11 10 8 9 8 5 5 6 3 4
1 2 2 1 2 3 2 4 6 2 2 7 3 3 1 2 1 4 3 1 0 1 1 1 1 1 1 1 2 4 4 3 5 4 3 1 2 2 0 1 1 2 3 3 3 1 1 1 6 1 4 10 8 2 5 10 5 4 3 2 2 2 4 4 4 1 1 3 1 4 2 4 5 4 1 9 11 10 9 9 7 6 5 5 4 6 5 4
4 2 2 2 1 3 2 4 2 6 7 5 3 1 1 3 3 3 5 5 2 2 1 1 1 1 3 1 2 3 3 4 4 4 0 2 1 2 1 1 0 1 3 3 2 1 1 0 6 8 4 5 6 2 4 3 7 7 5 3 1 1 1 2 1 3 3 1 2 4 8 3 5 2 5 10 11 11 8 10 8 6 5 5 4 5 6 4
2 1 2 3 1 3 3 4 5 5 3 1 1 1 2 1 1 4 4 7 2 1 1 0 2 1 1 3 5 2 2 3 2 2 1 3 3 3 2 1 1 1 2 3 5 0 1 1 5 11 12 7 7 4 2 1 1 1 1 5 5 5 2 2 5 2 3 2 3 2 9 7 5 4 7 11 9 8 9 9 10 6 5 5 5 5 6 7
2 2 2 4 3 2 4 6 4 2 3 4 4 2 1 3 2 4 3 5 5 3 3 1 1 1 1 1 1 3 2 2 2 1 2 3 4 1 2 3 2 1 1 1 0 3 1 1 1 8 7 10 14 15 2 4 4 4 4 3 1 4 4 4 4 3 1 4 1 1 2 7 4 5 7 6 7 9 10 10 9 7 5 5 5 6 6 5
4 2 5 7 5 2 3 4 2 3 2 2 4 2 2 1 1 3 4 5 3 4 3 2 2 3 2 2 3 4 1 2 1 0 3 4 4 3 3 2 5 4 4 0 1 1 2 0 4 9 9 11 7 4 3 2 2 2 2 1 0 3 5 6 4 1 1 2 3 2 3 7 5 5 5 5 10 12 10 8 8 8 5 5 6 6 6 8
1 2 6 5 5 6 10 4 4 5 2 3 3 2 4 3 4 4 3 4 3 3 2 2 4 3 2 4 4 4 3 2 5 7 3 2 3 5 5 3 4 0 1 3 2 2 1 0 1 7 8 4 2 1 2 3 1 1 6 4 3 8 10 11 10 2 3 7 8 4 6 7 4 5 8 11 11 11 12 14 10 9 9 7 4 4 5 6
2 2 2 7 7 7 6 1 2 1 2 3 3 4 4 2 3 4 2 2 2 3 3 3 2 5 2 3 2 3 2 3 2 2 3 3 3 2 4 5 4 2 3 4 4 2 1 1 1 5 9 12 12 13 14 11 11 9 6 7 10 14 14 10 4 3 6 0 6 3 5 7 9 7 10 9 12 14 15 16 16 11 10 11 10 8 5 6
4 2 5 6 5 6 4 1 3 2 1 3 4 2 3 3 2 6 5 1 3 3 0 2 2 3 2 5 6 5 4 1 2 2 3 2 3 2 2 1 3 4 5 7 5 3 1 0 2 4 3 7 9 7 10 5 5 7 15 11 15 13 14 9 4 1 2 2 4 7 7 13 13 12 8 12 12 13 15 17 17 16 15 14 10 8 5 5
0 3 2 6 7 4 3 3 5 3 3 1 1 0 3 2 2 2 5 1 3 2 2 0 1 4 3 4 3 4 2 4 3 4 3 4 3 3 7 6 4 5 9 6 6 4 2 2 5 7 9 10 10 10 14 9 6 8 10 14 14 13 12 9 12 9 11 8 4 5 12 12 13 11 8 13 14 13 14 15 16 16 16 15 13 10 7 5
4 1 2 1 1 4 7 5 7 6 5 2 2 2 1 3 4 2 3 1 3 2 2 5 2 1 3 3 3 2 4 4 4 3 3 2 4 3 7 1 3 6 6 1 2 1 1 2 3 1 11 7 6 10 10 8 2 3 6 11 12 13 11 9 5 8 9 6 8 13 14 13 11 9 11 13 12 13 15 16 15 15 13 13 13 12 10 7
3 0 1 0 1 2 1 7 7 3 4 3 0 4 3 4 3 1 0 3 2 2 1 0 4 4 4 3 2 2 4 5 3 2 2 4 3 5 3 5 2 2 4 1 0 0 1 3 5 2 10 13 11 7 3 4 2 1 8 8 9 10 9 6 5 8 10 6 10 11 13 12 8 9 13 14 13 13 14 13 13 13 14 13 12 11 12 11
3 1 3 3 1 3 3 3 3 3 2 3 2 3 0 1 3 3 1 0 1 3 2 1 5 6 7 5 2 3 5 5 8 7 3 4 14 1 3 4 5 1 1 2 2 1 1 5 1 1 5 13 12 5 0 2 3 1 7 10 13 10 5 5 6 6 13 11 15 15 11 11 6 7 12 13 12 11 12 13 13 13 12 13 13 12 12 12
1 0 0 1 4 4 2 3 4 3 2 4 3 3 1 3 3 3 3 2 3 2 2 5 6 8 3 3 5 7 11 10 9 13 13 7 10 7 1 5 4 1 2 1 2 1 2 5 2 0 5 9 9 6 10 7 2 2 7 12 11 12 12 9 7 4 7 10 13 13 12 13 15 14 15 14 14 13 14 15 14 13 14 14 14 15 13 12
1 2 2 3 0 3 3 3 3 2 3 2 3 3 1 3 3 3 3 4 2 2 4 4 4 3 8 6 10 12 13 10 11 12 11 11 11 12 9 12 7 6 1 2 2 3 5 1 5 3 6 6 10 8 9 7 1 1 5 6 8 9 7 9 4 3 6 7 8 10 11 13 14 13 15 17 15 17 16 13 14 17 16 14 15 15 16 14
Wind_Direction
353 352 351 350 348 347 345 344 343 343 340 339 337 336 334 334 334 333 333 332 329 330 330 329 327 326 326 326 329 332 332 336 324 345 353 241 192 185 230 235 276 285 286 317 325 18 346 340 329 347 339 68 266 243 236 186 175 127 234 196 258 244 237 231 231 227 269 302 286 261 258 246 256 268 266 278 257 259 272 265 193 225 207 176 185 157 148 147
352 351 350 349 347 346 345 344 343 342 340 338 338 337 335 334 334 333 331 330 329 328 329 328 327 325 326 327 329 334 336 316 304 287 234 198 214 208 231 255 258 264 286 37 26 11 352 329 318 350 335 328 251 217 152 260 157 187 238 199 255 206 230 266 268 264 269 267 286 288 261 257 257 278 320 330 308 313 324 334 194 186 79 51 55 160 153 150
351 350 349 347 346 346 344 344 342 340 340 339 337 336 335 333 332 331 331 328 328 328 327 326 325 325 324 325 331 335 336 321 253 358 315 179 215 222 246 260 259 243 141 289 281 296 252 271 295 333 309 270 284 240 178 260 191 218 196 254 246 27 306 293 275 285 280 277 282 287 295 283 272 279 291 260 284 312 313 44 349 52 85 105 104 79 319 156
351 350 348 347 346 345 343 342 341 340 340 339 336 335 334 332 331 330 329 328 329 329 328 326 325 326 323 323 326 334 317 302 34 289 271 213 216 231 249 254 247 224 168 181 225 279 267 276 283 253 277 237 279 93 203 258 161 257 178 232 271 106 301 276 298 288 285 301 301 299 302 305 297 263 271 285 291 282 286 237 169 152 225 157 147 140 198 321
350 348 348 346 345 344 342 341 340 340 338 336 335 334 333 332 331 328 327 328 329 329 328 326 325 323 322 319 324 332 333 48 268 249 249 198 210 230 242 244 240 203 172 283 323 281 301 296 295 306 219 275 277 15 240 243 211 270 231 236 235 251 254 266 260 271 281 277 276 282 284 279 310 300 267 265 240 258 255 254 193 192 157 162 180 166 173 156
348 347 346 345 344 343 341 340 340 338 336 335 333 332 331 330 329 327 327 328 330 329 328 325 325 324 321 322 311 191 113 83 258 252 178 208 215 241 246 245 253 153 20 346 359 312 326 318 356 356 321 149 266 275 268 224 168 252 307 288 247 235 251 264 257 260 261 278 274 275 269 294 310 296 287 273 228 268 283 332 201 175 173 175 171 174 161 167
347 346 344 344 343 342 341 339 338 337 334 333 331 329 329 328 324 325 323 327 328 327 326 324 324 324 329 321 271 154 77 244 262 241 170 203 220 233 243 257 315 21 40 337 317 345 313 296 315 260 280 328 322 320 296 312 305 236 259 255 266 257 245 251 261 271 275 264 268 271 308 302 294 274 325 327 292 278 284 347 209 312 153 135 147 166 199 212
345 344 343 343 342 341 339 338 336 334 332 331 328 327 326 324 322 320 322 322 323 323 323 326 324 328 338 348 13 9 55 284 247 190 192 195 222 241 263 294 274 337 320 251 285 300 310 310 348 346 93 49 255 320 292 327 323 284 273 298 296 265 261 298 292 282 263 267 269 297 283 239 190 230 308 295 270 276 285 263 193 174 241 186 165 179 183 200
345 343 343 342 341 340 338 337 335 333 332 329 327 324 322 320 318 316 316 315 317 320 322 326 329 325 336 114 74 48 10 237 208 192 183 192 223 242 184 295 140 185 254 297 241 263 314 277 342 345 261 351 330 343 332 16 319 341 306 296 290 296 292 278 295 285 280 268 265 301 261 259 234 272 268 281 14 355 359 346 254 194 174 202 197 172 176 189
344 343 342 341 340 338 337 336 333 332 330 328 325 322 320 317 313 311 310 313 314 316 322 326 329 331 329 17 25 65 267 199 212 171 194 200 219 214 222 238 226 219 335 281 309 329 348 312 354 303 169 248 1 300 323 339 250 314 300 311 293 278 301 271 267 275 273 239 229 283 302 290 285 83 275 297 320 337 2 26 324 156 167 189 194 178 170 165
345 343 341 340 339 338 336 334 332 330 329 326 324 320 317 313 311 309 309 309 310 311 315 328 338 354 17 348 85 32 243 69 196 186 192 202 213 215 236 231 220 243 216 306 329 309 293 353 348 331 45 237 325 301 328 253 325 319 320 319 312 288 273 268 291 288 325 304 240 288 280 304 279 193 248 262 295 349 349 67 356 193 175 179 258 218 45 66
344 343 340 339 338 337 335 333 331 330 328 326 321 319 313 310 305 305 303 304 303 301 308 311 345 282 269 73 124 216 212 196 235 173 192 197 218 226 241 234 225 236 270 289 300 301 301 305 44 30 296 357 318 315 297 328 330 312 328 325 315 334 330 287 266 278 317 259 258 127 319 300 299 263 208 253 292 313 326 89 90 53 262 217 187 215 208 183
344 342 340 339 338 337 334 333 331 329 328 324 321 316 312 305 304 303 303 302 286 293 304 311 320 203 91 23 236 239 272 275 219 275 270 219 255 271 247 258 243 221 212 216 262 279 296 323 61 354 285 3 298 172 292 329 305 330 331 343 333 343 323 294 308 256 311 240 258 80 272 271 272 287 258 261 291 307 305 127 140 181 190 156 345 296 289 255
344 342 340 340 338 336 335 333 331 330 327 324 320 314 307 302 300 299 298 282 279 280 302 47 136 348 92 236 281 264 266 237 342 327 254 236 258 277 273 248 240 236 235 208 246 249 295 315 8 287 272 275 291 308 340 320 329 328 290 14 280 344 275 282 351 311 326 263 253 107 238 278 289 277 284 226 234 249 283 254 147 176 168 184 186 208 235 229
344 342 341 339 338 336 335 334 331 329 327 323 320 311 304 301 296 292 289 279 256 237 182 163 109 87 25 282 247 291 232 51 5 261 247 279 227 278 318 343 286 258 250 226 252 257 231 357 19 8 290 244 283 7 319 350 322 300 18 313 335 175 279 292 311 294 278 296 319 70 285 264 260 276 288 290 245 238 245 274 242 161 188 194 191 196 210 221
344 343 340 339 337 335 333 333 331 328 326 322 319 312 305 297 295 290 272 251 242 212 199 47 297 121 72 321 305 326 337 44 263 243 264 209 177 228 243 304 263 285 315 265 230 255 262 85 213 215 289 4 35 53 358 10 337 341 150 283 288 278 271 322 302 223 238 265 307 157 250 315 304 275 281 277 199 219 260 271 281 209 175 190 193 188 208 188
344 342 340 338 336 333 333 333 331 330 326 322 322 315 309 300 290 269 251 203 166 193 139 98 119 169 57 239 306 309 263 248 231 302 255 212 189 193 9 9 353 317 332 331 297 255 264 127 263 12 340 245 130 81 35 353 311 295 318 225 236 254 277 265 298 311 291 256 305 342 185 253 263 301 307 311 314 308 254 263 271 274 159 196 185 175 194 200
343 341 339 337 335 333 331 333 332 331 328 325 322 311 303 314 315 221 61 103 143 173 235 279 257 35 298 345 342 306 224 256 264 231 265 243 142 131 150 292 295 316 356 333 333 119 213 240 151 205 2 344 72 84 119 249 215 230 305 274 304 286 259 253 291 285 339 345 233 282 270 278 285 290 296 291 296 314 291 268 258 270 242 173 185 171 186 193
342 341 339 336 333 332 331 330 331 332 331 325 317 319 260 88 40 69 84 87 73 8 27 328 60 67 215 275 262 280 278 231 277 6 300 339 321 194 316 182 319 336 318 43 289 105 312 29 24 20 289 290 238 172 193 234 228 245 250 242 250 279 285 274 252 283 339 328 320 234 233 256 288 299 304 309 303 298 282 283 279 271 269 169 188 201 187 192
341 339 338 335 334 331 332 330 329 331 335 335 342 353 1 18 5 330 342 44 116 194 246 256 214 274 297 282 268 261 288 17 35 288 293 317 95 359 311 209 268 66 49 272 304 282 143 155 227 232 238 241 248 208 212 233 239 254 266 274 276 270 263 256 261 265 17 330 286 288 247 244 275 271 279 290 310 309 298 299 291 289 292 248 227 196 191 200
339 338 336 333 333 331 329 330 325 327 329 317 313 10 57 328 6 329 332 295 237 244 249 258 221 240 246 281 299 358 352 317 311 224 234 173 95 73 323 35 23 352 266 251 250 281 71 299 266 243 240 236 248 247 232 255 256 243 242 223 253 248 277 251 284 306 312 317 285 294 303 252 242 268 278 281 308 291 274 276 275 272 273 261 198 240 204 201
338 336 335 334 332 331 327 328 323 325 321 267 346 54 146 66 194 236 358 324 319 250 240 256 260 264 253 247 256 158 100 296 329 344 269 84 170 89 280 62 34 326 284 329 7 17 181 214 239 241 246 246 271 280 267 251 263 270 258 262 272 270 252 258 274 299 312 311 276 284 299 289 268 246 264 256 255 262 259 244 259 263 267 260 185 217 228 234
337 336 333 334 333 328 327 323 322 325 353 38 26 45 47 287 357 33 96 274 270 273 283 290 268 250 274 292 283 91 47 313 268 262 216 107 12 116 352 42 343 299 322 3 345 338 332 280 248 253 263 251 258 264 269 271 270 243 295 302 269 242 296 297 268 292 282 243 266 280 287 287 289 257 241 253 237 249 254 257 264 254 248 251 221 188 179 182
336 334 333 334 332 330 323 323 311 329 11 299 289 50 255 22 28 49 66 190 294 311 233 239 212 254 256 158 237 118 9 268 188 293 212 113 140 193 77 139 317 327 327 316 314 297 240 262 279 317 272 227 254 268 277 288 303 262 226 246 261 288 259 229 276 268 276 281 283 294 297 287 279 297 290 264 260 246 269 272 288 285 257 259 285 255 194 196
334 334 334 333 335 330 323 318 35 353 306 297 263 286 342 86 71 122 99 339 301 279 232 295 186 278 246 360 2 308 246 305 236 187 207 133 152 42 183 190 48 309 301 306 318 321 297 283 3 340 337 340 355 339 320 306 314 318 257 228 236 243 261 264 270 292 337 317 295 236 295 272 291 277 270 288 328 307 293 319 292 286 292 270 265 262 249 219
331 332 333 332 333 333 319 351 338 338 340 106 277 313 354 32 38 118 90 90 31 278 4 302 35 299 37 327 20 160 62 292 238 210 162 202 156 131 51 336 146 259 307 321 287 248 250 295 347 327 329 326 341 326 293 19 333 329 281 267 257 261 265 265 273 294 277 269 276 140 205 278 306 288 272 285 297 287 290 290 283 278 282 286 269 266 248 248
331 330 330 331 335 339 9 15 294 313 36 308 298 336 349 2 89 69 58 13 44 13 320 247 9 290 71 326 313 101 36 276 302 345 70 151 142 21 121 264 5 281 262 336 40 313 315 322 333 330 330 324 329 325 310 4 321 275 295 317 332 325 299 270 258 227 243 246 251 147 136 255 292 269 236 254 269 277 281 281 280 276 264 274 276 272 267 251
329 329 327 331 331 331 200 329 341 16 247 244 319 335 347 325 78 73 78 71 22 315 12 323 61 272 357 311 306 111 224 259 32 292 187 195 102 357 94 208 180 236 273 55 320 261 307 309 325 317 321 317 305 286 308 3 266 266 308 309 302 304 304 294 271 260 248 335 286 131 124 264 255 271 239 217 247 268 272 271 274 279 275 263 267 262 260 247
328 326 327 329 331 336 147 162 175 245 244 283 312 318 343 52 72 92 116 95 343 303 205 71 265 7 328 332 7 354 321 319 311 249 3 20 264 145 122 254 196 240 295 148 238 304 285 255 293 286 284 282 263 299 306 313 305 270 278 281 275 281 294 300 322 317 308 318 285 156 170 238 270 269 271 148 256 269 273 279 271 266 269 271 275 276 274 264
325 321 326 330 331 89 49 322 233 245 270 297 288 316 42 62 44 36 29 177 343 305 337 289 3 320 347 359 326 352 3 322 323 359 40 159 309 31 278 91 193 48 348 360 299 243 282 283 268 259 253 222 277 304 332 318 280 282 273 268 283 294 285 292 256 253 1 265 290 173 185 175 268 263 239 237 238 241 265 275 268 270 284 282 258 265 274 275
322 321 323 333 11 245 352 308 253 239 254 268 302 36 76 36 95 89 85 246 21 280 321 19 343 351 356 14 331 310 335 294 338 14 341 22 360 34 343 20 22 44 25 355 308 309 312 312 12 301 297 297 36 331 321 323 313 319 307 297 343 308 345 7 321 160 250 262 128 188 208 178 237 286 67 203 243 227 228 248 264 277 277 278 284 283 279 276
322 321 321 320 209 105 170 239 246 329 325 320 14 47 68 22 9 68 231 334 75 309 25 327 341 341 323 344 170 321 328 329 353 9 4 340 49 39 8 90 340 17 351 352 322 353 329 295 305 333 211 64 332 352 330 331 322 46 3 14 194 273 33 336 23 275 218 246 216 53 19 289 232 255 293 330 243 257 258 253 257 265 273 279 278 278 284 280
322 318 319 300 183 184 233 250 304 300 314 334 29 64 59 91 60 311 360 337 145 269 301 232 288 337 329 6 5 342 333 30 338 343 16 356 105 70 45 68 19 91 358 295 304 344 275 281 360 325 340 54 8 354 317 335 339 323 311 283 2 308 278 241 233 263 291 250 120 43 357 274 282 289 261 299 293 278 288 287 281 265 263 269 274 275 275 283
318 317 320 197 197 213 237 221 248 293 321 349 70 34 48 64 27 77 76 318 253 310 298 332 312 350 28 38 311 354 351 306 6 331 13 359 52 75 13 22 38 39 57 338 41 342 332 358 302 357 311 336 339 298 269 255 297 285 214 183 201 171 167 262 187 231 234 255 302 358 41 223 181 228 300 307 299 293 271 265 274 280 280 279 267 272 277 280
314 299 258 252 236 242 237 245 248 263 350 19 39 73 82 64 87 297 330 309 301 327 334 322 9 13 345 5 309 1 31 299 337 340 354 23 27 65 38 360 342 101 343 24 297 113 218 244 280 81 285 320 298 310 307 326 301 277 230 73 92 232 132 245 162 30 313 335 308 169 217 206 229 287 301 302 302 298 293 298 311 303 298 290 284 272 265 270
320 317 263 271 218 264 199 223 217 190 113 47 75 49 84 142 249 261 225 203 284 12 307 358 19 39 330 332 303 1 334 49 301 8 329 25 17 76 13 225 331 354 97 88 289 351 328 286 241 310 297 269 262 334 313 22 282 278 5 223 172 350 94 36 302 179 225 133 250 180 276 291 323 298 298 287 289 291 309 318 315 316 311 297 282 296 322 333
359 330 15 315 271 255 198 193 161 106 61 86 87 65 156 173 224 205 298 9 310 131 60 42 329 53 340 338 301 342 322 9 320 35 326 1 25 64 319 275 182 42 119 128 334 156 133 290 305 303 325 314 10 326 292 279 220 326 303 192 112 51 58 114 237 173 215 237 268 163 245 265 53 287 303 314 311 327 330 325 326 333 347 13 350 324 327 332
330 318 255 269 265 84 116 137 79 49 78 77 65 110 41 91 282 120 282 350 20 28 89 101 270 58 330 353 319 334 317 39 328 36 306 337 150 325 160 207 285 163 204 219 125 282 82 306 306 206 255 306 332 337 334 85 57 41 307 165 16 286 321 168 308 243 227 228 273 266 246 253 200 257 299 289 304 311 310 314 330 339 343 335 324 328 330 295
279 4 7 279 164 152 142 72 69 77 64 54 20 48 297 137 314 50 349 339 267 74 75 238 164 289 30 338 252 313 311 347 320 318 21 302 75 277 175 190 273 266 202 123 61 179 62 219 294 204 6 331 318 360 13 312 7 98 121 73 299 187 237 171 208 262 105 257 12 278 149 261 200 227 268 308 300 292 295 310 311 310 310 295 308 321 329 323
13 35 318 284 66 91 56 64 53 45 62 66 327 61 322 70 32 34 26 42 334 63 224 272 306 327 346 249 332 285 296 342 341 287 38 271 124 288 275 328 194 211 98 61 112 127 149 176 283 285 356 322 347 51 340 350 328 340 18 292 316 204 322 284 281 203 185 212 199 295 298 252 252 220 300 286 284 296 304 296 297 306 293 287 290 298 314 309
309 98 273 285 77 100 49 44 43 31 72 317 26 314 14 48 11 358 356 12 12 149 125 239 17 59 255 342 328 296 303 325 300 308 243 315 33 349 268 233 211 108 78 35 68 15 86 158 247 302 333 341 287 293 55 347 79 343 241 284 293 282 272 264 247 142 244 158 220 227 266 265 246 304 285 270 279 288 286 293 298 303 285 277 284 290 297 308
48 41 297 328 304 54 74 45 358 352 91 41 337 308 4 58 64 355 9 357 57 14 344 38 36 341 273 251 231 303 318 301 273 10 308 2 294 228 274 110 88 107 89 30 262 228 146 197 230 291 267 281 280 289 302 189 145 257 236 270 218 270 279 255 269 224 203 241 246 185 311 277 255 222 247 265 274 285 287 294 292 285 259 244 258 275 281 275
41 234 255 305 318 57 67 62 326 26 33 295 295 312 357 55 76 4 26 2 40 6 359 6 342 18 326 20 327 313 331 293 242 9 324 352 316 349 230 162 111 53 77 301 26 288 130 72 288 278 266 251 278 329 102 130 138 269 214 129 142 276 256 256 255 283 242 165 197 199 234 258 268 271 273 282 303 300 295 286 278 280 262 220 244 270 293 311
269 275 319 297 9 87 72 55 356 351 310 319 23 312 331 83 38 13 43 26 40 352 352 311 337 61 280 321 310 310 323 17 336 27 326 325 321 313 240 62 105 141 114 231 135 239 34 356 162 297 318 316 143 298 59 282 30 7 302 308 325 319 295 278 253 193 241 209 205 165 250 274 278 329 331 316 316 315 313 314 309 305 302 291 253 262 292 303
271 265 257 303 350 47 80 144 90 345 331 354 356 349 4 30 90 64 55 35 6 33 345 340 261 294 346 355 335 332 12 105 286 305 357 288 284 288 283 87 99 167 187 219 140 112 87 215 64 318 338 339 342 346 337 337 334 315 305 339 338 343 331 326 298 178 229 247 189 196 258 274 302 321 314 329 337 329 329 325 322 309 296 299 304 302 301 301
24 15 309 336 3 5 53 49 83 85 351 352 10 299 62 9 353 30 31 134 56 1 257 263 303 339 17 15 12 348 321 11 34 280 332 293 291 302 343 112 197 197 208 162 143 94 145 239 177 198 231 297 293 288 272 279 300 322 327 340 344 343 339 324 292 47 312 326 245 251 268 298 302 313 319 336 335 325 321 320 320 321 314 302 290 283 265 268
45 64 348 340 331 32 45 4 19 27 339 270 65 327 31 23 307 328 358 87 340 6 317 331 3 18 339 27 353 310 255 320 304 308 260 277 259 260 320 282 230 213 168 151 149 77 76 336 246 222 234 242 256 259 280 307 311 302 335 347 343 346 346 12 37 360 312 288 270 11 326 308 303 306 323 328 324 320 316 312 314 320 317 306 295 287 272 258
63 293 89 214 126 285 2 340 357 341 317 49 19 43 20 20 17 29 321 56 320 349 40 323 29 39 17 352 327 318 318 320 290 255 281 268 298 308 318 228 199 213 156 122 142 127 138 266 275 232 295 274 249 260 277 298 198 241 357 345 349 347 353 14 26 9 342 354 324 316 314 314 313 310 316 313 314 309 305 303 305 304 304 316 312 294 284 276
118 267 132 279 91 272 224 268 305 302 332 12 64 43 26 29 354 325 15 311 356 313 64 278 301 324 324 324 57 281 299 341 312 265 291 277 285 318 315 333 333 171 108 103 331 188 69 243 247 216 290 306 307 288 276 285 282 188 9 344 352 360 344 334 332 10 358 334 317 312 311 304 301 309 315 311 310 304 300 299 300 306 315 319 315 308 302 299
8 42 311 343 212 280 268 300 291 351 40 7 52 357 55 25 351 325 305 300 334 300 276 220 284 308 311 303 297 277 257 236 251 287 270 310 309 181 252 205 240 330 126 175 175 276 125 274 176 298 326 305 307 305 144 229 201 108 349 353 353 350 344 343 316 318 349 350 341 333 315 308 295 304 303 310 304 298 298 303 305 305 307 310 310 306 301 296
284 239 166 7 342 292 304 344 337 350 44 360 60 325 33 353 349 314 277 226 192 228 303 302 295 304 275 274 279 259 265 257 252 239 250 254 267 280 275 282 167 258 259 196 137 235 146 272 2 87 322 301 309 341 326 344 153 64 346 350 346 347 349 342 322 319 356 327 313 325 339 330 312 314 308 308 310 313 310 309 308 307 305 304 305 302 298 294
14 302 44 103 304 302 20 319 304 33 18 355 14 326 350 316 295 358 347 295 210 240 268 275 280 284 297 302 282 273 270 265 251 248 246 249 239 260 224 243 228 238 228 207 185 174 179 258 318 356 320 276 294 327 327 326 99 29 338 327 324 317 324 314 286 284 265 296 310 332 310 306 296 300 308 310 313 312 307 307 312 307 301 301 298 295 294 294